< < Back
Terminal Aerodrome Forecast


Current Version              Previous Versions:   1  2  3  4  5  6  7  8  9  

Terminal Aerodrome Forecast

622
FTUS44 KBMX 301120
TAFBHM
TAF
KBHM 301120Z 3012/3112 27006KT P6SM SCT040
     FM301900 24007KT P6SM VCTS BKN050CB
     FM310100 23003KT P6SM FEW040=



Latest METAR

067
SAUS70 KWBC 301500 RRK
MTRBHM
METAR KBHM 301453Z 27009KT 10SM BKN060 29/24 A3008 RMK AO2 SLP175
T02940239 51006


USA.gov is the U.S. government's official web portal to all federal, state and local government web resources and services.